,,PA_Meas_PMT16A,,PR_Meas_QMR101_102,,RH_Meas_QMH101,,SR_Meas_QMS101,,TA_Meas_QMH101,,GenWind,,GenWind,
time,status,PA,status,PR,status,RH,status,SR,status,TA,status,DirAvg,status,SpdAvg,
2013-04-28, 00:00:04,VALID,918.428,VALID,0,VALID,95.5214,VALID,0,VALID,20.678,VALID,340,VALID,0,
2013-04-28, 00:01:04,VALID,918.432,VALID,0,VALID,95.59,VALID,0,VALID,20.66,INVALID,360,VALID,0,
2013-04-28, 00:02:04,VALID,918.466,VALID,0,VALID,95.6357,VALID,0,VALID,20.6405,VALID,340,VALID,0,
2013-04-28, 00:03:04,VALID,918.451,VALID,0,VALID,95.7044,VALID,0,VALID,20.621,VALID,340,VALID,0,
2013-04-28, 00:04:04,VALID,918.484,VALID,0,VALID,95.7806,VALID,0,VALID,20.5999,VALID,340,VALID,0,
2013-04-28, 00:05:04,VALID,918.476,VALID,0,VALID,95.8263,VALID,0,VALID,20.5804,INVALID,360,VALID,0,
2013-04-28, 00:06:04,VALID,918.443,VALID,0,VALID,95.8645,VALID,0,VALID,20.6015,VALID,340,VALID,0,
2013-04-28, 00:07:04,VALID,918.458,VALID,0,VALID,95.9178,VALID,0,VALID,20.5609,VALID,340,VALID,0,
2013-04-28, 00:08:04,VALID,918.45,VALID,0,VALID,95.9788,VALID,0,VALID,20.5609,VALID,21,VALID,0,
2013-04-28, 00:09:04,VALID,918.453,VALID,0,VALID,96.0322,VALID,0,VALID,20.5414,VALID,58,VALID,0,
2013-04-28, 00:10:04,VALID,918.44,VALID,0,VALID,96.1084,VALID,0,VALID,20.5414,VALID,58,VALID,0,
2013-04-28, 00:11:04,VALID,918.453,VALID,0,VALID,96.1313,VALID,0,VALID,20.5219,VALID,68,VALID,0,
2013-04-28, 00:12:04,VALID,918.398,VALID,0,VALID,96.177,VALID,0,VALID,20.5219,VALID,82,VALID,0,
2013-04-28, 00:13:04,VALID,918.399,VALID,0,VALID,96.238,VALID,0,VALID,20.5219,VALID,82,VALID,0,
2013-04-28, 00:14:04,VALID,918.358,VALID,0,VALID,96.2685,VALID,0,VALID,20.5235,VALID,82,VALID,0,
2013-04-28, 00:15:04,VALID,918.315,VALID,0,VALID,96.3142,VALID,0,VALID,20.5219,VALID,82,VALID,0,
2013-04-28, 00:16:04,VALID,918.307,VALID,0,VALID,96.3524,VALID,0,VALID,20.5219,VALID,82,VALID,0,
2013-04-28, 00:17:05,VALID,918.282,VALID,0,VALID,96.3676,VALID,0,VALID,20.5219,VALID,82,VALID,0,
2013-04-28, 00:18:05,VALID,918.244,VALID,0,VALID,96.3905,VALID,0,VALID,20.5414,VALID,82,VALID,0,
2013-04-28, 00:19:05,VALID,918.218,VALID,0,VALID,96.421,VALID,0,VALID,20.5625,VALID,82,VALID,0,
2013-04-28, 00:20:05,VALID,918.187,VALID,0,VALID,96.4438,VALID,0,VALID,20.5625,VALID,82,VALID,0,
2013-04-28, 00:21:05,VALID,918.177,VALID,0,VALID,96.4667,VALID,0,VALID,20.5414,VALID,82,VALID,0,
2013-04-28, 00:22:05,VALID,918.183,VALID,0,VALID,96.4667,VALID,0,VALID,20.5609,VALID,82,VALID,0,
2013-04-28, 00:23:05,VALID,918.174,VALID,0,VALID,96.5124,VALID,0,VALID,20.5625,VALID,82,VALID,0,
2013-04-28, 00:24:05,VALID,918.143,VALID,0,VALID,96.5048,VALID,0,VALID,20.5609,VALID,82,VALID,0,
2013-04-28, 00:25:05,VALID,918.175,VALID,0,VALID,96.5124,VALID,0,VALID,20.5414,VALID,82,VALID,0,
2013-04-28, 00:26:05,VALID,918.206,VALID,0,VALID,96.5124,VALID,0,VALID,20.5625,VALID,82,VALID,0,
2013-04-28, 00:27:05,VALID,918.185,VALID,0,VALID,96.5429,VALID,0,VALID,20.5625,VALID,82,VALID,0,
2013-04-28, 00:28:05,VALID,918.192,VALID,0,VALID,96.5582,VALID,0,VALID,20.5609,VALID,82,VALID,0,
2013-04-28, 00:29:05,VALID,918.156,VALID,0,VALID,96.5658,VALID,0,VALID,20.5804,VALID,82,VALID,0,
2013-04-28, 00:30:05,VALID,918.158,VALID,0,VALID,96.5811,VALID,0,VALID,20.621,VALID,82,VALID,0,
2013-04-28, 00:31:05,VALID,918.147,VALID,0,VALID,96.5963,VALID,0,VALID,20.5999,VALID,82,VALID,0,
2013-04-28, 00:32:05,VALID,918.131,VALID,0,VALID,96.6039,VALID,0,VALID,20.621,VALID,82,VALID,0,
2013-04-28, 00:33:05,VALID,918.098,VALID,0,VALID,96.6192,VALID,0,VALID,20.6405,VALID,82,VALID,0,
2013-04-28, 00:34:05,VALID,918.092,VALID,0,VALID,96.6039,VALID,0,VALID,20.639,VALID,82,VALID,0,
2013-04-28, 00:35:05,VALID,918.037,VALID,0,VALID,96.6039,VALID,0,VALID,20.639,VALID,82,VALID,0,
2013-04-28, 00:36:05,VALID,918.069,VALID,0,VALID,96.6115,VALID,0,VALID,20.6194,VALID,128,VALID,0,
2013-04-28, 00:37:05,VALID,918.015,VALID,0,VALID,96.6039,VALID,0,VALID,20.6015,VALID,128,VALID,0,
2013-04-28, 00:38:05,VALID,917.986,VALID,0,VALID,96.5811,VALID,0,VALID,20.5625,VALID,126,VALID,0,
2013-04-28, 00:39:05,VALID,917.956,VALID,0,VALID,96.5506,VALID,0,VALID,20.5219,VALID,121,VALID,0,
2013-04-28, 00:40:05,VALID,917.907,VALID,0,VALID,96.5734,VALID,0,VALID,20.5219,VALID,134,VALID,0,
2013-04-28, 00:41:05,VALID,917.872,VALID,0,VALID,96.5734,VALID,0,VALID,20.5024,VALID,129,VALID,0,
2013-04-28, 00:42:05,VALID,917.815,VALID,0,VALID,96.5734,VALID,0,VALID,20.504,VALID,123,VALID,0,
2013-04-28, 00:43:05,VALID,917.809,VALID,0,VALID,96.5887,VALID,0,VALID,20.465,VALID,121,VALID,0,
2013-04-28, 00:44:05,VALID,917.794,VALID,0,VALID,96.5963,VALID,0,VALID,20.465,VALID,125,VALID,0,
2013-04-28, 00:45:05,VALID,917.752,VALID,0,VALID,96.5887,VALID,0,VALID,20.4244,VALID,115,VALID,0,
2013-04-28, 00:46:05,VALID,917.732,VALID,0,VALID,96.6039,VALID,0,VALID,20.4049,VALID,115,VALID,0,
2013-04-28, 00:47:05,VALID,917.727,VALID,0,VALID,96.6192,VALID,0,VALID,20.4064,VALID,107,VALID,0,
2013-04-28, 00:48:05,VALID,917.698,VALID,0,VALID,96.642,VALID,0,VALID,20.3854,VALID,118,VALID,0,
2013-04-28, 00:49:05,VALID,917.674,VALID,0,VALID,96.6192,VALID,0,VALID,20.3659,VALID,127,VALID,0,
2013-04-28, 00:50:05,VALID,917.672,VALID,0,VALID,96.6344,VALID,0,VALID,20.3674,VALID,128,VALID,0,
2013-04-28, 00:51:05,VALID,917.677,VALID,0,VALID,96.642,VALID,0,VALID,20.3479,VALID,127,VALID,0,
2013-04-28, 00:52:05,VALID,917.689,VALID,0,VALID,96.6497,VALID,0,VALID,20.3495,VALID,134,VALID,0,
2013-04-28, 00:53:05,VALID,917.684,VALID,0,VALID,96.6649,VALID,0,VALID,20.3074,VALID,128,VALID,0,
2013-04-28, 00:54:05,VALID,917.724,VALID,0,VALID,96.6649,VALID,0,VALID,20.3284,VALID,111,VALID,0,
2013-04-28, 00:55:05,VALID,917.69,VALID,0,VALID,96.6573,VALID,0,VALID,20.3284,VALID,117,VALID,0,
2013-04-28, 00:56:05,VALID,917.719,VALID,0,VALID,96.6649,VALID,0,VALID,20.3089,VALID,127,VALID,0,
2013-04-28, 00:57:05,VALID,917.74,VALID,0,VALID,96.703,VALID,0,VALID,20.3089,VALID,128,VALID,0,
2013-04-28, 00:58:05,VALID,917.716,VALID,0,VALID,96.703,VALID,0,VALID,20.3089,VALID,127,VALID,0,
2013-04-28, 00:59:05,VALID,917.733,VALID,0,VALID,96.6954,VALID,0,VALID,20.3089,VALID,135,VALID,0,
2013-04-28, 01:00:05,VALID,917.73,VALID,0,VALID,96.7183,VALID,0,VALID,20.3089,VALID,142,VALID,0,
2013-04-28, 01:01:05,VALID,917.732,VALID,0,VALID,96.7564,VALID,0,VALID,20.3479,VALID,146,VALID,0,
2013-04-28, 01:02:05,VALID,917.701,VALID,0,VALID,96.7793,VALID,0,VALID,20.3479,VALID,137,VALID,0,
2013-04-28, 01:03:05,VALID,917.707,VALID,0,VALID,96.7869,VALID,0,VALID,20.3674,VALID,157,VALID,0,
2013-04-28, 01:04:05,VALID,917.694,VALID,0,VALID,96.8021,VALID,0,VALID,20.3869,VALID,157,VALID,0,
2013-04-28, 01:05:05,VALID,917.696,VALID,0,VALID,96.7869,VALID,0,VALID,20.3869,VALID,163,VALID,0,
2013-04-28, 01:06:05,VALID,917.668,VALID,0,VALID,96.8021,VALID,0,VALID,20.3869,VALID,154,VALID,0,
2013-04-28, 01:07:05,VALID,917.695,VALID,0,VALID,96.8098,VALID,0,VALID,20.3659,VALID,182,VALID,0,
2013-04-28, 01:08:05,VALID,917.623,VALID,0,VALID,96.8326,VALID,0,VALID,20.3854,VALID,178,VALID,0,
2013-04-28, 01:09:05,VALID,917.613,VALID,0,VALID,96.825,VALID,0,VALID,20.3869,VALID,151,VALID,0,
2013-04-28, 01:10:05,VALID,917.607,VALID,0,VALID,96.8403,VALID,0,VALID,20.3464,VALID,158,VALID,0,
2013-04-28, 01:11:05,VALID,917.583,VALID,0,VALID,96.8326,VALID,0,VALID,20.3674,VALID,174,VALID,0,
2013-04-28, 01:12:05,VALID,917.572,VALID,0,VALID,96.825,VALID,0,VALID,20.3269,VALID,151,VALID,0,
2013-04-28, 01:13:05,VALID,917.578,VALID,0,VALID,96.8174,VALID,0,VALID,20.3074,VALID,151,VALID,0,
2013-04-28, 01:14:05,VALID,917.558,VALID,0,VALID,96.8326,VALID,0,VALID,20.3074,VALID,161,VALID,0,
2013-04-28, 01:15:05,VALID,917.549,VALID,0,VALID,96.8174,VALID,0,VALID,20.3284,VALID,160,VALID,0,
2013-04-28, 01:16:05,VALID,917.573,VALID,0,VALID,96.8021,VALID,0,VALID,20.3284,VALID,159,VALID,0,
2013-04-28, 01:17:05,VALID,917.553,VALID,0,VALID,96.8174,VALID,0,VALID,20.3074,VALID,166,VALID,0,
2013-04-28, 01:18:05,VALID,917.549,VALID,0,VALID,96.8098,VALID,0,VALID,20.3479,VALID,172,VALID,0,
2013-04-28, 01:19:05,VALID,917.531,VALID,0,VALID,96.8021,VALID,0,VALID,20.3479,VALID,179,VALID,0,
2013-04-28, 01:20:05,VALID,917.503,VALID,0,VALID,96.8098,VALID,0,VALID,20.3269,VALID,176,VALID,0,
2013-04-28, 01:21:05,VALID,917.526,VALID,0,VALID,96.7945,VALID,0,VALID,20.3479,VALID,179,VALID,0,
2013-04-28, 01:22:05,VALID,917.491,VALID,0,VALID,96.8098,VALID,0,VALID,20.3479,VALID,183,VALID,0,
2013-04-28, 01:23:05,VALID,917.487,VALID,0,VALID,96.8098,VALID,0,VALID,20.3674,VALID,183,VALID,0,
2013-04-28, 01:24:05,VALID,917.473,VALID,0,VALID,96.8021,VALID,0,VALID,20.3464,VALID,183,VALID,0,
2013-04-28, 01:25:05,VALID,917.424,VALID,0,VALID,96.8021,VALID,0,VALID,20.3479,VALID,183,VALID,0,
2013-04-28, 01:26:05,VALID,917.425,VALID,0,VALID,96.8098,VALID,0,VALID,20.3674,VALID,183,VALID,0,
2013-04-28, 01:27:05,VALID,917.443,VALID,0,VALID,96.7869,VALID,0,VALID,20.3479,VALID,183,VALID,0,
2013-04-28, 01:28:05,VALID,917.409,VALID,0,VALID,96.8098,VALID,0,VALID,20.3269,VALID,183,VALID,0,
2013-04-28, 01:29:05,VALID,917.395,VALID,0,VALID,96.8098,VALID,0,VALID,20.3464,VALID,183,VALID,0,
2013-04-28, 01:30:05,VALID,917.339,VALID,0,VALID,96.8021,VALID,0,VALID,20.3674,VALID,183,VALID,0,
2013-04-28, 01:31:05,VALID,917.324,VALID,0,VALID,96.8098,VALID,0,VALID,20.3479,VALID,183,VALID,0,
2013-04-28, 01:32:05,VALID,917.267,VALID,0,VALID,96.8174,VALID,0,VALID,20.3479,VALID,183,VALID,0,
2013-04-28, 01:33:05,VALID,917.286,VALID,0,VALID,96.8098,VALID,0,VALID,20.3479,VALID,183,VALID,0,
2013-04-28, 01:34:05,VALID,917.24,VALID,0,VALID,96.8021,VALID,0,VALID,20.3479,VALID,183,VALID,0,
2013-04-28, 01:35:05,VALID,917.252,VALID,0,VALID,96.825,VALID,0,VALID,20.3479,VALID,183,VALID,0,
2013-04-28, 01:36:05,VALID,917.233,VALID,0,VALID,96.8098,VALID,0,VALID,20.3479,VALID,183,VALID,0,
2013-04-28, 01:37:05,VALID,917.223,VALID,0,VALID,96.8098,VALID,0,VALID,20.3269,VALID,183,VALID,0,
2013-04-28, 01:38:05,VALID,917.268,VALID,0,VALID,96.8021,VALID,0,VALID,20.3269,VALID,183,VALID,0,
2013-04-28, 01:39:05,VALID,917.26,VALID,0,VALID,96.7945,VALID,0,VALID,20.3284,VALID,183,VALID,0,
2013-04-28, 01:40:05,VALID,917.236,VALID,0,VALID,96.7945,VALID,0,VALID,20.3284,VALID,183,VALID,0,
2013-04-28, 01:41:05,VALID,917.239,VALID,0,VALID,96.7945,VALID,0,VALID,20.3089,VALID,183,VALID,0,
2013-04-28, 01:42:05,VALID,917.267,VALID,0,VALID,96.7564,VALID,0,VALID,20.2699,VALID,183,VALID,0,
2013-04-28, 01:43:05,VALID,917.26,VALID,0,VALID,96.7411,VALID,0,VALID,20.2098,VALID,180,VALID,0,
2013-04-28, 01:44:05,VALID,917.274,VALID,0,VALID,96.7335,VALID,0,VALID,20.2309,VALID,53,VALID,0,
2013-04-28, 01:45:05,VALID,917.25,VALID,0,VALID,96.7335,VALID,0,VALID,20.1708,VALID,47,VALID,0,
2013-04-28, 01:46:05,VALID,917.259,VALID,0,VALID,96.703,VALID,0,VALID,20.1529,VALID,47,VALID,0,
2013-04-28, 01:47:05,VALID,917.218,VALID,0,VALID,96.7107,VALID,0,VALID,20.0944,VALID,46,VALID,0,
2013-04-28, 01:48:05,VALID,917.201,VALID,0,VALID,96.7107,VALID,0,VALID,20.0553,VALID,44,VALID,0,
2013-04-28, 01:49:05,VALID,917.201,VALID,0,VALID,96.7259,VALID,0,VALID,20.0163,VALID,44,VALID,0,
2013-04-28, 01:50:05,VALID,917.206,VALID,0,VALID,96.7411,VALID,0,VALID,20.0163,VALID,45,VALID,0,
2013-04-28, 01:51:05,VALID,917.172,VALID,0,VALID,96.7411,VALID,0,VALID,19.9563,VALID,45,VALID,0,
2013-04-28, 01:52:05,VALID,917.146,VALID,0,VALID,96.7869,VALID,0,VALID,19.9773,VALID,43,VALID,0,
2013-04-28, 01:53:05,VALID,917.157,VALID,0,VALID,96.7869,VALID,0,VALID,19.9578,VALID,34,VALID,0,
2013-04-28, 01:54:05,VALID,917.145,VALID,0,VALID,96.8098,VALID,0,VALID,19.9578,VALID,34,VALID,0,
2013-04-28, 01:55:05,VALID,917.111,VALID,0,VALID,96.8326,VALID,0,VALID,19.9578,VALID,34,VALID,0,
2013-04-28, 01:56:05,VALID,917.086,VALID,0,VALID,96.8403,VALID,0,VALID,19.9578,VALID,34,VALID,0,
2013-04-28, 01:57:05,VALID,917.098,VALID,0,VALID,96.8707,VALID,0,VALID,19.9578,VALID,34,VALID,0,
2013-04-28, 01:58:05,VALID,917.069,VALID,0,VALID,96.886,VALID,0,VALID,19.9578,VALID,34,VALID,0,
2013-04-28, 01:59:05,VALID,917.077,VALID,0,VALID,96.886,VALID,0,VALID,19.9563,VALID,34,VALID,0,
2013-04-28, 02:00:05,VALID,917.074,VALID,0,VALID,96.9012,VALID,0,VALID,19.9563,VALID,34,VALID,0,
2013-04-28, 02:01:05,VALID,917.068,VALID,0,VALID,96.9165,VALID,0,VALID,19.9758,VALID,34,VALID,0,
2013-04-28, 02:02:05,VALID,917.081,VALID,0,VALID,96.9241,VALID,0,VALID,19.9758,VALID,34,VALID,0,
2013-04-28, 02:03:05,VALID,917.06,VALID,0,VALID,96.9241,VALID,0,VALID,19.9563,VALID,34,VALID,0,
2013-04-28, 02:04:05,VALID,917.028,VALID,0,VALID,96.9241,VALID,0,VALID,19.9563,VALID,34,VALID,0,
2013-04-28, 02:05:05,VALID,917.015,VALID,0,VALID,96.9317,VALID,0,VALID,19.9353,VALID,45,VALID,0,
2013-04-28, 02:06:05,VALID,917.039,VALID,0,VALID,96.9546,VALID,0,VALID,19.9368,VALID,58,VALID,0,
2013-04-28, 02:07:05,VALID,917.053,VALID,0,VALID,96.9317,VALID,0,VALID,19.9368,VALID,58,VALID,0,
2013-04-28, 02:08:05,VALID,917.063,VALID,0,VALID,96.9546,VALID,0,VALID,19.9173,VALID,58,VALID,0,
2013-04-28, 02:09:05,VALID,917.064,VALID,0,VALID,96.9622,VALID,0.107441,VALID,19.9173,VALID,58,VALID,0,
2013-04-28, 02:10:05,VALID,917.047,VALID,0,VALID,96.9546,VALID,0,VALID,19.8978,VALID,58,VALID,0,
2013-04-28, 02:11:05,VALID,917.036,VALID,0,VALID,96.9698,VALID,0,VALID,19.9173,VALID,58,VALID,0,
2013-04-28, 02:12:05,VALID,917.042,VALID,0,VALID,96.9775,VALID,0,VALID,19.9173,VALID,58,VALID,0,
2013-04-28, 02:13:05,VALID,917.026,VALID,0,VALID,96.9927,VALID,0.107441,VALID,19.9173,VALID,58,VALID,0,
2013-04-28, 02:14:05,VALID,917.042,VALID,0,VALID,97.0003,VALID,0,VALID,19.8963,VALID,58,VALID,0,
2013-04-28, 02:15:05,VALID,917.018,VALID,0,VALID,96.9775,VALID,0,VALID,19.9173,VALID,58,VALID,0,
2013-04-28, 02:16:05,VALID,917.009,VALID,0,VALID,97.0003,VALID,0,VALID,19.8978,VALID,58,VALID,0,
2013-04-28, 02:17:05,VALID,916.992,VALID,0,VALID,97.0308,VALID,0,VALID,19.8978,VALID,58,VALID,0,
2013-04-28, 02:18:05,VALID,916.987,VALID,0,VALID,97.0232,VALID,0,VALID,19.9173,VALID,58,VALID,0,
2013-04-28, 02:19:05,VALID,916.978,VALID,0,VALID,97.0156,VALID,0,VALID,19.9548,VALID,58,VALID,0,
2013-04-28, 02:20:05,VALID,916.966,VALID,0,VALID,97.0308,VALID,0,VALID,19.9953,VALID,58,VALID,0,
2013-04-28, 02:21:05,VALID,916.949,VALID,0,VALID,97.0232,VALID,0.107441,VALID,19.9368,VALID,58,VALID,0,
2013-04-28, 02:22:05,VALID,916.918,VALID,0,VALID,97.0461,VALID,0,VALID,19.8783,VALID,58,VALID,0,
2013-04-28, 02:23:05,VALID,916.907,VALID,0,VALID,97.0308,VALID,0.107441,VALID,19.8588,VALID,58,VALID,0,
2013-04-28, 02:24:05,VALID,916.918,VALID,0,VALID,97.0461,VALID,0,VALID,19.8783,VALID,58,VALID,0,
2013-04-28, 02:25:05,VALID,916.917,VALID,0,VALID,97.0461,VALID,0,VALID,19.8783,VALID,58,VALID,0,
2013-04-28, 02:26:05,VALID,916.905,VALID,0,VALID,97.0385,VALID,0,VALID,19.8783,VALID,58,VALID,0,
2013-04-28, 02:27:05,VALID,916.918,VALID,0,VALID,97.0308,VALID,0,VALID,19.8978,VALID,58,VALID,0,
2013-04-28, 02:28:05,VALID,916.913,VALID,0,VALID,97.0613,VALID,0,VALID,19.8978,VALID,58,VALID,0,
2013-04-28, 02:29:05,VALID,916.912,VALID,0,VALID,97.0461,VALID,0.107441,VALID,19.8783,VALID,58,VALID,0,
2013-04-28, 02:30:05,VALID,916.886,VALID,0,VALID,97.0385,VALID,0,VALID,19.8588,VALID,58,VALID,0,
2013-04-28, 02:31:05,VALID,916.904,VALID,0,VALID,97.0385,VALID,0,VALID,19.8573,VALID,103,VALID,0,
2013-04-28, 02:32:05,VALID,916.898,VALID,0,VALID,97.0308,VALID,0.107441,VALID,19.8978,VALID,103,VALID,0,
2013-04-28, 02:33:05,VALID,916.875,VALID,0,VALID,97.0156,VALID,0,VALID,19.9368,VALID,103,VALID,0,
2013-04-28, 02:34:05,VALID,916.877,VALID,0,VALID,97.008,VALID,0,VALID,19.9548,VALID,103,VALID,0,
2013-04-28, 02:35:05,VALID,916.861,VALID,0,VALID,97.0156,VALID,0,VALID,19.9548,VALID,103,VALID,0,
2013-04-28, 02:36:05,VALID,916.894,VALID,0,VALID,97.0232,VALID,0,VALID,19.9563,VALID,103,VALID,0,
2013-04-28, 02:37:05,VALID,916.876,VALID,0,VALID,97.0003,VALID,0,VALID,19.9563,VALID,103,VALID,0,
2013-04-28, 02:38:05,VALID,916.875,VALID,0,VALID,97.0156,VALID,0,VALID,19.9563,VALID,103,VALID,0,
2013-04-28, 02:39:05,VALID,916.859,VALID,0,VALID,97.0308,VALID,0,VALID,19.9353,VALID,103,VALID,0,
2013-04-28, 02:40:05,VALID,916.875,VALID,0,VALID,97.008,VALID,0,VALID,19.9158,VALID,103,VALID,0,
2013-04-28, 02:41:05,VALID,916.862,VALID,0,VALID,97.0308,VALID,0,VALID,19.9368,VALID,103,VALID,0,
2013-04-28, 02:42:05,VALID,916.881,VALID,0,VALID,97.0385,VALID,0,VALID,19.9158,VALID,103,VALID,0,
2013-04-28, 02:43:05,VALID,916.869,VALID,0,VALID,97.0385,VALID,0,VALID,19.9563,VALID,103,VALID,0,
2013-04-28, 02:44:05,VALID,916.845,VALID,0,VALID,97.0461,VALID,0,VALID,19.9563,VALID,103,VALID,0,
2013-04-28, 02:45:05,VALID,916.851,VALID,0,VALID,97.0308,VALID,0,VALID,19.9368,VALID,103,VALID,0,
2013-04-28, 02:46:05,VALID,916.824,VALID,0,VALID,97.0385,VALID,0,VALID,19.9368,VALID,103,VALID,0,
2013-04-28, 02:47:05,VALID,916.788,VALID,0,VALID,97.0232,VALID,0,VALID,19.9173,VALID,103,VALID,0,
2013-04-28, 02:48:05,VALID,916.767,VALID,0,VALID,97.0613,VALID,0.107441,VALID,19.8978,VALID,103,VALID,0,
2013-04-28, 02:49:05,VALID,916.759,VALID,0,VALID,97.0613,VALID,0.107441,VALID,19.8573,VALID,103,VALID,0,
2013-04-28, 02:50:05,VALID,916.769,VALID,0,VALID,97.0613,VALID,0,VALID,19.8588,VALID,103,VALID,0,
2013-04-28, 02:51:05,VALID,916.723,VALID,0,VALID,97.069,VALID,0,VALID,19.8783,VALID,103,VALID,0,
2013-04-28, 02:52:05,VALID,916.717,VALID,0,VALID,97.069,VALID,0.107441,VALID,19.8588,VALID,103,VALID,0,
2013-04-28, 02:53:05,VALID,916.705,VALID,0,VALID,97.0613,VALID,0.107441,VALID,19.8378,VALID,103,VALID,0,
2013-04-28, 02:54:05,VALID,916.719,VALID,0,VALID,97.0613,VALID,0.107441,VALID,19.8588,VALID,103,VALID,0,
2013-04-28, 02:55:05,VALID,916.729,VALID,0,VALID,97.0613,VALID,0.107441,VALID,19.8783,VALID,103,VALID,0,
2013-04-28, 02:56:05,VALID,916.703,VALID,0,VALID,97.0766,VALID,0.107441,VALID,19.8393,VALID,103,VALID,0,
2013-04-28, 02:57:05,VALID,916.681,VALID,0,VALID,97.0918,VALID,0,VALID,19.8198,VALID,103,VALID,0,
2013-04-28, 02:58:04,VALID,916.682,VALID,0,VALID,97.0994,VALID,0,VALID,19.8198,VALID,127,VALID,0,
2013-04-28, 02:59:04,VALID,916.685,VALID,0,VALID,97.0842,VALID,0.107441,VALID,19.8198,VALID,126,VALID,0,
2013-04-28, 03:00:04,VALID,916.692,VALID,0,VALID,97.0918,VALID,0.107441,VALID,19.7988,VALID,133,VALID,0,
2013-04-28, 03:01:04,VALID,916.698,VALID,0,VALID,97.0918,VALID,0,VALID,19.8393,VALID,133,VALID,0,
2013-04-28, 03:02:04,VALID,916.685,VALID,0,VALID,97.0918,VALID,0.107441,VALID,19.8393,VALID,133,VALID,0,
2013-04-28, 03:03:04,VALID,916.684,VALID,0,VALID,97.1071,VALID,0,VALID,19.8393,VALID,133,VALID,0,
2013-04-28, 03:04:04,VALID,916.65,VALID,0,VALID,97.1299,VALID,0.107441,VALID,19.8183,VALID,133,VALID,0,
2013-04-28, 03:05:04,VALID,916.651,VALID,0,VALID,97.1223,VALID,0.107441,VALID,19.8798,VALID,133,VALID,0,
2013-04-28, 03:06:04,VALID,916.646,VALID,0,VALID,97.1376,VALID,0.107441,VALID,19.8588,VALID,133,VALID,0,
2013-04-28, 03:07:04,VALID,916.636,VALID,0,VALID,97.1147,VALID,0,VALID,19.8588,VALID,133,VALID,0,
2013-04-28, 03:08:04,VALID,916.611,VALID,0,VALID,97.1452,VALID,0,VALID,19.8588,VALID,133,VALID,0,
2013-04-28, 03:09:04,VALID,916.611,VALID,0,VALID,97.1223,VALID,0,VALID,19.8183,VALID,133,VALID,0,
2013-04-28, 03:10:04,VALID,916.602,VALID,0,VALID,97.1376,VALID,0,VALID,19.8198,VALID,133,VALID,0,
2013-04-28, 03:11:04,VALID,916.591,VALID,0,VALID,97.1528,VALID,0,VALID,19.8198,VALID,133,VALID,0,
2013-04-28, 03:12:04,VALID,916.58,VALID,0,VALID,97.1299,VALID,0.107441,VALID,19.8198,VALID,133,VALID,0,
2013-04-28, 03:13:04,VALID,916.556,VALID,0,VALID,97.1452,VALID,0.107441,VALID,19.8198,VALID,133,VALID,0,
2013-04-28, 03:14:04,VALID,916.546,VALID,0,VALID,97.1452,VALID,0,VALID,19.8393,VALID,133,VALID,0,
2013-04-28, 03:15:04,VALID,916.559,VALID,0,VALID,97.1528,VALID,0.107441,VALID,19.8588,VALID,133,VALID,0,
2013-04-28, 03:16:04,VALID,916.563,VALID,0,VALID,97.1452,VALID,0,VALID,19.8588,VALID,133,VALID,0,
2013-04-28, 03:17:04,VALID,916.552,VALID,0,VALID,97.1681,VALID,0.107441,VALID,19.8573,VALID,133,VALID,0,
2013-04-28, 03:18:04,VALID,916.529,VALID,0,VALID,97.1604,VALID,0,VALID,19.8783,VALID,133,VALID,0,
2013-04-28, 03:19:04,VALID,916.524,VALID,0,VALID,97.1681,VALID,0.107441,VALID,19.8978,VALID,133,VALID,0,
2013-04-28, 03:20:04,VALID,916.508,VALID,0.2,VALID,97.1604,VALID,0.107441,VALID,19.8978,VALID,133,VALID,0,
2013-04-28, 03:21:04,VALID,916.509,VALID,0,VALID,97.1757,VALID,0,VALID,19.8783,VALID,133,VALID,0,
2013-04-28, 03:22:04,VALID,916.525,VALID,0,VALID,97.1604,VALID,0,VALID,19.8783,VALID,133,VALID,0,
2013-04-28, 03:23:04,VALID,916.518,VALID,0,VALID,97.1528,VALID,0,VALID,19.8783,VALID,133,VALID,0,
2013-04-28, 03:24:04,VALID,916.52,VALID,0,VALID,97.1833,VALID,0.107441,VALID,19.8588,VALID,133,VALID,0,
2013-04-28, 03:25:04,VALID,916.489,VALID,0,VALID,97.1986,VALID,0.107441,VALID,19.8393,VALID,133,VALID,0,
2013-04-28, 03:26:04,VALID,916.502,VALID,0,VALID,97.1909,VALID,0,VALID,19.8393,VALID,133,VALID,0,
2013-04-28, 03:27:04,VALID,916.479,VALID,0,VALID,97.1833,VALID,0,VALID,19.8198,VALID,132,VALID,0,
2013-04-28, 03:28:04,VALID,916.466,VALID,0,VALID,97.1681,VALID,0.107441,VALID,19.8003,VALID,121,VALID,0,
2013-04-28, 03:29:04,VALID,916.467,VALID,0,VALID,97.1986,VALID,0,VALID,19.7823,VALID,119,VALID,0,
2013-04-28, 03:30:04,VALID,916.46,VALID,0,VALID,97.1833,VALID,0,VALID,19.7823,VALID,117,VALID,0,
2013-04-28, 03:31:04,VALID,916.461,VALID,0,VALID,97.1909,VALID,0,VALID,19.7628,VALID,117,VALID,0,
2013-04-28, 03:32:04,VALID,916.454,VALID,0,VALID,97.2062,VALID,0,VALID,19.7433,VALID,115,VALID,0,
2013-04-28, 03:33:04,VALID,916.456,VALID,0,VALID,97.2214,VALID,0,VALID,19.7043,VALID,115,VALID,0,
2013-04-28, 03:34:04,VALID,916.454,VALID,0,VALID,97.2062,VALID,0,VALID,19.7043,VALID,115,VALID,0,
2013-04-28, 03:35:04,VALID,916.428,VALID,0,VALID,97.1909,VALID,0,VALID,19.6848,VALID,118,VALID,0,
2013-04-28, 03:36:04,VALID,916.435,VALID,0,VALID,97.1986,VALID,0,VALID,19.6848,VALID,118,VALID,0,
2013-04-28, 03:37:04,VALID,916.471,VALID,0,VALID,97.2062,VALID,0,VALID,19.6638,VALID,118,VALID,0,
2013-04-28, 03:38:04,VALID,916.42,VALID,0,VALID,97.1986,VALID,0,VALID,19.6653,VALID,118,VALID,0,
2013-04-28, 03:39:04,VALID,916.42,VALID,0,VALID,97.1909,VALID,0,VALID,19.6653,VALID,118,VALID,0,
2013-04-28, 03:40:04,VALID,916.399,VALID,0,VALID,97.2214,VALID,0,VALID,19.6653,VALID,118,VALID,0,
2013-04-28, 03:41:04,VALID,916.423,VALID,0,VALID,97.1986,VALID,0,VALID,19.6653,VALID,118,VALID,0,
2013-04-28, 03:42:04,VALID,916.412,VALID,0,VALID,97.2062,VALID,0,VALID,19.6443,VALID,118,VALID,0,
2013-04-28, 03:43:04,VALID,916.419,VALID,0,VALID,97.2214,VALID,0,VALID,19.6458,VALID,118,VALID,0,
2013-04-28, 03:44:04,VALID,916.409,VALID,0,VALID,97.1986,VALID,0,VALID,19.6638,VALID,120,VALID,0,
2013-04-28, 03:45:04,VALID,916.451,VALID,0,VALID,97.1986,VALID,0,VALID,19.6638,VALID,121,VALID,0,
2013-04-28, 03:46:04,VALID,916.419,VALID,0,VALID,97.1986,VALID,0,VALID,19.7238,VALID,133,VALID,0,
2013-04-28, 03:47:04,VALID,916.458,VALID,0,VALID,97.1986,VALID,0,VALID,19.7628,VALID,133,VALID,0,
2013-04-28, 03:48:04,VALID,916.457,VALID,0,VALID,97.2214,VALID,0,VALID,19.7418,VALID,133,VALID,0,
2013-04-28, 03:49:04,VALID,916.44,VALID,0,VALID,97.2138,VALID,0,VALID,19.7823,VALID,133,VALID,0,
2013-04-28, 03:50:04,VALID,916.48,VALID,0,VALID,97.1986,VALID,0,VALID,19.7823,VALID,133,VALID,0,
2013-04-28, 03:51:04,VALID,916.473,VALID,0,VALID,97.1986,VALID,0,VALID,19.7613,VALID,133,VALID,0,
2013-04-28, 03:52:04,VALID,916.488,VALID,0,VALID,97.1909,VALID,0,VALID,19.7808,VALID,133,VALID,0,
2013-04-28, 03:53:04,VALID,916.503,VALID,0,VALID,97.1909,VALID,0,VALID,19.7808,VALID,132,VALID,0,
2013-04-28, 03:54:04,VALID,916.491,VALID,0,VALID,97.1986,VALID,0,VALID,19.8213,VALID,133,VALID,0,
2013-04-28, 03:55:04,VALID,916.49,VALID,0,VALID,97.229,VALID,0,VALID,19.8003,VALID,133,VALID,0,
2013-04-28, 03:56:04,VALID,916.466,VALID,0,VALID,97.1986,VALID,0,VALID,19.8198,VALID,133,VALID,0,
2013-04-28, 03:57:04,VALID,916.512,VALID,0,VALID,97.2138,VALID,0,VALID,19.8213,VALID,132,VALID,0,
2013-04-28, 03:58:04,VALID,916.498,VALID,0,VALID,97.2062,VALID,0,VALID,19.8198,VALID,133,VALID,0,